Location: Lake Zurich
(42.1970°N, 88.0930°W)
Time: 11:59:34
(UTC-05:00)

Amateur Radio Satellites - All Passes

Search period start: 02 September 2015 11:29
Search period end: 03 September 2015 11:29
Location: Lake Zurich, 42.1970°N, 88.0930°W

Satellite Date Start Highest point End Downlink Frequencies (MHz)
Time Altitude Azimuth
TIGRISAT 02 Sep 11:31:24 11:35:25 27° 266° (W) 11:39:22 435.000
AAUSAT CUBESAT 2 02 Sep 11:32:02 11:32:43 10° 297° (WNW) 11:33:11 437.432
ESTCUBE 1 02 Sep 11:32:44 11:36:29 26° 94° (E) 11:40:19 437.505/2401.250
CUBEBUG 1 02 Sep 11:35:15 11:38:44 23° 93° (E) 11:42:18 437.445
AUBIESAT-1 02 Sep 11:35:48 11:39:33 23° 262° (W) 11:43:10 437.475
AISAT 02 Sep 11:39:26 11:43:42 42° 98° (E) 11:47:58 437.250
DELFI C3 02 Sep 11:41:46 11:44:58 23° 291° (WNW) 11:48:05 145.870
M-CUBED/EXP-1 PRIME 02 Sep 11:43:32 11:46:44 17° 265° (W) 11:49:43 437.505
CUSAT 1 02 Sep 11:48:50 11:56:26 51° 267° (W) 12:04:14 437.405
ANTELSAT 02 Sep 11:50:17 11:53:29 17° 270° (W) 11:56:31 437.575/2403.000
POLYITAN 1 02 Sep 11:52:56 11:56:53 35° 263° (W) 12:00:51 437.675
BUGSAT 1 02 Sep 11:53:35 11:57:37 58° 260° (W) 12:01:42 437.445
DUCHIFAT 1 02 Sep 11:53:43 11:57:39 37° 263° (W) 12:01:37 145.980
POPSAT HIP 1 02 Sep 11:54:53 11:58:48 34° 263° (W) 12:02:43 437.405
ISS 02 Sep 12:02:01 12:04:05 16° 2° (N) 12:06:09 145.825
ZACube-1 02 Sep 12:03:43 12:06:44 17° 295° (WNW) 12:09:32 437.345
VELOX 1 02 Sep 12:07:00 12:11:30 80° 104° (ESE) 12:15:59 145.980
50 SAT 02 Sep 12:07:46 12:11:38 73° 285° (WNW) 12:15:26 437.505
FUNcube-1 02 Sep 12:08:28 12:11:16 16° 296° (WNW) 12:13:53 145.935
NANOSAT C BR1 02 Sep 12:12:33 12:16:00 23° 267° (W) 12:19:22 145.865
QB50P2 02 Sep 12:13:02 12:16:24 22° 267° (W) 12:19:43 145.880/145.840
HO-68 02 Sep 12:13:57 12:16:06 11° 311° (NW) 12:17:50 435.675
UWE-3 02 Sep 12:15:54 12:17:19 11° 299° (WNW) 12:18:28 435.000/436.395/437.385
PCSat 02 Sep 12:20:05 12:24:02 20° 253° (WSW) 12:27:48 145.827
TISAT 1 02 Sep 12:22:42 12:24:26 12° 89° (E) 12:26:24 437.305
GONETS M04 02 Sep 12:26:21 12:32:36 22° 61° (ENE) 12:39:15
Oscar 19 02 Sep 12:27:43 12:31:48 25° 66° (ENE) 12:36:02 437.125/150
QB50P1 02 Sep 12:27:52 12:30:36 16° 270° (W) 12:33:11 145.935-145.965
DANDE 02 Sep 12:29:14 12:36:19 39° 269° (W) 12:43:55 436.750
HUMSAT D 02 Sep 12:34:22 12:37:20 18° 294° (WNW) 12:40:09 437.325/437.525
Cosmos 2504 02 Sep 12:42:24 12:47:48 18° 282° (WNW) 12:52:37 435.465 / 435.565
DX 1 02 Sep 12:47:11 12:50:49 25° 292° (WNW) 12:54:23 434.975-435.025
UKube-1 02 Sep 12:57:11 13:00:36 22° 293° (WNW) 13:03:54 .
SPROUT 02 Sep 12:59:25 13:03:43 58° 100° (E) 13:07:59 437.525
ESTCUBE 1 02 Sep 13:09:25 13:13:22 30° 291° (WNW) 13:17:16 437.505/2401.250
CUBEBUG 1 02 Sep 13:11:09 13:15:10 34° 290° (WNW) 13:19:08 437.445
AISAT 02 Sep 13:16:41 13:20:01 20° 294° (WNW) 13:23:12 437.250
Gurwin Techsat 1B 02 Sep 13:22:39 13:26:56 26° 65° (ENE) 13:31:18 435.225
ITUPSAT 1 02 Sep 13:29:16 13:30:36 11° 87° (E) 13:32:14 437.325
ITAMSAT 1 02 Sep 13:30:29 13:34:34 25° 65° (ENE) 13:38:46 435.822/435.867
BEESAT 3 02 Sep 13:37:40 13:39:15 12° 110° (ESE) 13:41:03 437.485
ISS 02 Sep 13:38:23 13:41:16 28° 22° (NNE) 13:44:09 145.825
VELOX 1 02 Sep 13:45:57 13:47:28 11° 298° (WNW) 13:48:45 145.980
BEESAT 2 02 Sep 13:52:06 13:54:01 13° 110° (ESE) 13:56:07 435.950
JAS-2 02 Sep 13:53:52 14:00:35 35° 64° (ENE) 14:07:29 435.910
TISAT 1 02 Sep 13:56:25 14:00:38 58° 286° (WNW) 14:04:49 437.305
BEESAT 02 Sep 13:59:19 14:03:08 24° 94° (E) 14:07:03 436.000
Cosmos 2499 02 Sep 14:00:21 14:06:37 22° 61° (ENE) 14:12:55 435.465 / 435.565
RS-15 02 Sep 14:05:22 14:10:11 15° 98° (E) 14:15:59 29.354- 29.394
Oscar 19 02 Sep 14:06:03 14:10:57 43° 262° (W) 14:15:54 437.125/150
AO-7 02 Sep 14:14:31 14:20:57 27° 55° (NE) 14:27:36 29.400- 29.500
GONETS M04 02 Sep 14:21:55 14:30:46 84° 263° (W) 14:39:37
SWISSCUBE 02 Sep 14:25:01 14:29:37 48° 99° (E) 14:34:13 437.505
SPROUT 02 Sep 14:36:58 14:39:21 14° 296° (WNW) 14:41:34 437.525
KKS-1 02 Sep 14:43:32 14:44:10 10° 87° (E) 14:45:06 437.445
HORYU 2 02 Sep 14:52:25 14:55:21 18° 65° (ENE) 14:58:25 437.375
Gurwin Techsat 1B 02 Sep 15:01:40 15:06:42 42° 262° (W) 15:11:45 435.225
ITUPSAT 1 02 Sep 15:04:23 15:09:09 77° 286° (WNW) 15:13:55 437.325
ITAMSAT 1 02 Sep 15:08:56 15:13:51 43° 262° (W) 15:18:46 435.822/435.867
BEESAT 3 02 Sep 15:12:41 15:16:43 63° 305° (NW) 15:20:47 437.485
ISS 02 Sep 15:14:40 15:17:48 47° 220° (SW) 15:20:55 145.825
BEESAT 2 02 Sep 15:27:34 15:31:37 59° 306° (NW) 15:35:42 435.950
BEESAT 02 Sep 15:36:44 15:41:06 36° 290° (WNW) 15:45:24 436.000
JAS-2 02 Sep 15:37:42 15:45:16 57° 262° (W) 15:52:59 435.910
Cosmos 2499 02 Sep 15:52:22 16:01:05 82° 263° (W) 16:09:06 435.465 / 435.565
STARS 02 Sep 15:53:43 15:57:49 36° 97° (E) 16:01:55 437.465
SWISSCUBE 02 Sep 16:03:43 16:07:09 20° 295° (WNW) 16:10:28 437.505
AO-7 02 Sep 16:04:41 16:13:03 77° 253° (WSW) 16:21:26 29.400- 29.500
RS-15 02 Sep 16:09:53 16:20:40 71° 118° (ESE) 16:31:57 29.354- 29.394
AIST 2 02 Sep 16:16:34 16:20:49 90° 200° (SSW) 16:25:06 435.215
KKS-1 02 Sep 16:16:55 16:21:26 75° 284° (WNW) 16:25:54 437.445
GONETS M04 02 Sep 16:21:10 16:26:26 17° 282° (WNW) 16:31:10
HORYU 2 02 Sep 16:27:16 16:31:39 49° 261° (W) 16:36:01 437.375
MOZHAYETS 4 02 Sep 16:43:13 16:47:15 31° 95° (E) 16:51:19
BEESAT 3 02 Sep 16:55:02 16:55:31 10° 326° (NW) 16:55:50 437.485
Cubesat XI-IV 02 Sep 17:03:58 17:07:35 19° 63° (ENE) 17:11:21 437.490
STARS 02 Sep 17:30:34 17:34:04 22° 293° (WNW) 17:37:28 437.465
O/OREOS (USA 219) 02 Sep 17:38:12 17:39:40 12° 99° (E) 17:41:25 437.305
CUTE-I 02 Sep 17:46:40 17:51:40 44° 70° (ENE) 17:56:43 437.470
Cosmos 2499 02 Sep 17:48:04 17:52:54 16° 283° (WNW) 17:57:03 435.465 / 435.565
AIST 2 02 Sep 17:57:45 18:00:03 14° 323° (NW) 18:02:12 435.215
AO-7 02 Sep 18:02:49 18:07:23 15° 274° (W) 18:11:21 29.400- 29.500
MOZHAYETS 4 02 Sep 18:20:33 18:24:23 26° 292° (WNW) 18:28:08
RS-15 02 Sep 18:23:46 18:34:03 41° 324° (NW) 18:44:40 29.354- 29.394
Cosmos 2491 02 Sep 18:36:56 18:43:08 22° 61° (ENE) 18:49:42 435.465 / 435.565
AIST 1 02 Sep 18:41:00 18:44:56 34° 75° (ENE) 18:48:57
Cubesat XI-IV 02 Sep 18:42:01 18:47:16 60° 259° (W) 18:52:33 437.490
CUBESAT XI-V 02 Sep 18:42:08 18:46:39 49° 99° (E) 18:51:10 437.345
HO-68 02 Sep 19:05:33 19:11:02 25° 59° (ENE) 19:16:42 435.675
O/OREOS (USA 219) 02 Sep 19:14:03 19:18:34 69° 294° (WNW) 19:23:09 437.305
STRAND 1 02 Sep 19:20:33 19:25:02 31° 95° (E) 19:29:35 437.568
BRITE-PL 02 Sep 19:26:35 19:30:57 63° 74° (ENE) 19:35:42 437.365/2234.400
CUTE-I 02 Sep 19:27:40 19:31:59 24° 267° (W) 19:36:10 437.470
GOMX 1 02 Sep 19:44:53 19:49:20 57° 74° (ENE) 19:54:12 467.674
CUTE 1.7 + AOD 2 02 Sep 19:46:27 19:49:51 24° 68° (ENE) 19:53:19 437.475
DOVE 4 02 Sep 19:48:32 19:52:50 38° 70° (ENE) 19:57:28 437.250
PRISM 02 Sep 19:51:47 19:55:42 42° 99° (E) 19:59:37 437.425
CUBEBUG 2 02 Sep 19:59:07 19:59:59 11° 61° (ENE) 20:01:07 437.445
CANX-2 02 Sep 20:00:11 20:04:07 36° 71° (ENE) 20:08:05 2200.000
SEEDS 02 Sep 20:17:49 20:21:47 40° 72° (ENE) 20:25:47 437.485
CINEMA 3 02 Sep 20:18:50 20:23:07 35° 70° (ENE) 20:27:37 145.822/145.860
AIST 1 02 Sep 20:19:10 20:22:24 20° 271° (W) 20:25:30
CUBESAT XI-V 02 Sep 20:20:31 20:23:45 18° 295° (WNW) 20:26:52 437.345
Cosmos 2491 02 Sep 20:32:30 20:41:18 84° 264° (W) 20:50:06 435.465 / 435.565
Oscar 11 02 Sep 20:35:53 20:39:01 20° 67° (ENE) 20:42:17 145.826/435.025
COMPASS 1 02 Sep 20:36:03 20:40:07 50° 74° (ENE) 20:44:13 437.405
YUBILEINY 02 Sep 20:39:27 20:47:43 50° 89° (E) 20:56:08 435.215
RS-15 02 Sep 20:42:14 20:50:48 23° 357° (N) 20:59:37 29.354- 29.394
AAUSAT CUBESAT 2 02 Sep 20:44:22 20:48:26 52° 74° (ENE) 20:52:30 437.432
HO-68 02 Sep 20:51:04 20:58:13 70° 257° (WSW) 21:05:25 435.675
DELFI C3 02 Sep 20:54:34 20:57:25 19° 68° (ENE) 21:00:23 145.870
STRAND 1 02 Sep 20:59:42 21:04:14 32° 292° (WNW) 21:08:43 437.568
BRITE-PL 02 Sep 21:08:04 21:10:10 13° 275° (W) 21:12:05 437.365/2234.400
CUTE 1.7 + AOD 2 02 Sep 21:21:48 21:25:38 31° 265° (W) 21:29:26 437.475
ZACube-1 02 Sep 21:22:22 21:26:38 41° 71° (ENE) 21:30:59 437.345
GOMX 1 02 Sep 21:25:17 21:28:03 15° 273° (W) 21:30:42 467.674
FUNcube-1 02 Sep 21:26:41 21:31:00 44° 72° (ENE) 21:35:24 145.935
DOVE 4 02 Sep 21:26:59 21:30:46 23° 269° (W) 21:34:39 437.250
PRISM 02 Sep 21:28:05 21:30:50 17° 294° (WNW) 21:33:28 437.425
CUBEBUG 2 02 Sep 21:31:16 21:35:57 86° 77° (ENE) 21:40:44 437.445
Cosmos 2504 02 Sep 21:31:59 21:34:50 13° 75° (ENE) 21:38:23 435.465 / 435.565
UWE-3 02 Sep 21:33:45 21:38:21 72° 75° (ENE) 21:43:03 435.000/436.395/437.385
CANX-2 02 Sep 21:36:58 21:40:11 20° 268° (W) 21:43:17 2200.000
HUMSAT D 02 Sep 21:49:53 21:53:41 31° 70° (ENE) 21:57:34 437.325/437.525
BEESAT 3 02 Sep 21:54:19 21:56:03 13° 37° (NE) 21:57:54 437.485
SEEDS 02 Sep 21:54:50 21:57:47 18° 269° (W) 22:00:35 437.485
CINEMA 3 02 Sep 21:56:22 22:00:23 26° 267° (W) 22:04:28 145.822/145.860
DX 1 02 Sep 22:06:59 22:10:41 29° 69° (ENE) 22:14:28 434.975-435.025
BEESAT 2 02 Sep 22:09:29 22:11:29 13° 38° (NE) 22:13:35 435.950
Oscar 11 02 Sep 22:10:54 22:14:59 38° 263° (W) 22:19:03 145.826/435.025
COMPASS 1 02 Sep 22:13:48 22:16:08 14° 271° (W) 22:18:15 437.405
UKube-1 02 Sep 22:15:57 22:19:46 32° 69° (ENE) 22:23:38 .
AAUSAT CUBESAT 2 02 Sep 22:22:16 22:24:23 13° 271° (W) 22:26:19 437.432
DELFI C3 02 Sep 22:28:33 22:32:16 34° 263° (W) 22:35:59 145.870
Cosmos 2491 02 Sep 22:31:48 22:37:00 17° 282° (WNW) 22:41:40 435.465 / 435.565
CUBEBUG 1 02 Sep 22:32:16 22:35:26 21° 67° (ENE) 22:38:44 437.445
ESTCUBE 1 02 Sep 22:33:00 22:36:42 26° 68° (ENE) 22:40:28 437.505/2401.250
YUBILEINY 02 Sep 22:36:44 22:44:49 38° 290° (WNW) 22:52:50 435.215
AISAT 02 Sep 22:37:34 22:41:40 40° 71° (ENE) 22:45:50 437.250
HO-68 02 Sep 22:45:27 22:47:27 11° 277° (W) 22:48:50 435.675
50 SAT 02 Sep 22:51:06 22:55:00 63° 75° (ENE) 22:58:56 437.505
UNISAT 6 02 Sep 22:54:32 22:58:40 33° 96° (E) 23:02:43 437.425
RS-15 02 Sep 22:57:45 23:08:01 35° 31° (NNE) 23:18:50 29.354- 29.394
ZACube-1 02 Sep 22:59:46 23:03:11 20° 269° (W) 23:06:31 437.345
AIST 2 02 Sep 23:01:32 23:02:37 11° 34° (NE) 23:03:50 435.215
FUNcube-1 02 Sep 23:04:18 23:07:34 19° 269° (W) 23:10:43 145.935
VELOX 1 02 Sep 23:04:48 23:09:10 75° 75° (ENE) 23:13:36 145.980
UWE-3 02 Sep 23:13:37 23:15:29 12° 274° (W) 23:17:04 435.000/436.395/437.385
CUSAT 1 02 Sep 23:15:15 23:18:32 23° 85° (E) 23:22:41 437.405
AUBIESAT-1 02 Sep 23:15:47 23:18:53 23° 98° (E) 23:21:51 437.475
TISAT 1 02 Sep 23:16:28 23:17:31 11° 62° (ENE) 23:18:48 437.305
Cosmos 2504 02 Sep 23:17:29 23:25:33 69° 93° (E) 23:34:07 435.465 / 435.565
TIGRISAT 02 Sep 23:21:55 23:26:28 64° 101° (E) 23:30:52 435.000
M-CUBED/EXP-1 PRIME 02 Sep 23:23:02 23:26:38 35° 101° (ESE) 23:29:58 437.505
HUMSAT D 02 Sep 23:25:55 23:29:28 24° 267° (W) 23:32:55 437.325/437.525
BEESAT 3 02 Sep 23:30:35 23:34:38 88° 53° (NE) 23:38:37 437.485
BUGSAT 1 02 Sep 23:35:51 23:38:54 20° 92° (E) 23:42:05 437.445
POLYITAN 1 02 Sep 23:37:34 23:41:31 34° 97° (E) 23:45:27 437.675
DUCHIFAT 1 02 Sep 23:37:40 23:41:32 32° 96° (E) 23:45:23 145.980
POPSAT HIP 1 02 Sep 23:39:13 23:43:11 35° 97° (E) 23:47:08 437.405
ANTELSAT 02 Sep 23:39:58 23:44:34 80° 284° (WNW) 23:48:59 437.575/2403.000
DX 1 02 Sep 23:43:15 23:46:55 26° 265° (W) 23:50:33 434.975-435.025
BEESAT 2 02 Sep 23:46:03 23:50:07 85° 239° (WSW) 23:54:08 435.950
UKube-1 02 Sep 23:52:28 23:55:57 23° 266° (W) 23:59:21 .
SPROUT 02 Sep 23:53:49 23:57:55 47° 72° (ENE) 00:02:05 437.525
NANOSAT C BR1 02 Sep 23:55:48 00:00:01 53° 100° (E) 00:04:12 145.865
QB50P2 02 Sep 23:56:36 00:00:52 58° 100° (E) 00:05:05 145.880/145.840
DANDE 02 Sep 23:59:28 00:02:49 35° 90° (E) 00:07:15 436.750
CUBEBUG 1 03 Sep 00:07:34 00:11:35 37° 263° (W) 00:15:37 437.445
ESTCUBE 1 03 Sep 00:09:31 00:13:29 30° 265° (W) 00:17:25 437.505/2401.250
QB50P1 03 Sep 00:10:24 00:14:43 80° 102° (ESE) 00:19:00 145.935-145.965
AISAT 03 Sep 00:15:11 00:18:26 19° 268° (W) 00:21:35 437.250
SO-50 03 Sep 00:26:27 00:30:56 43° 117° (ESE) 00:35:36 436.795
UNISAT 6 03 Sep 00:31:34 00:35:18 24° 293° (WNW) 00:38:51 437.425
ITUPSAT 1 03 Sep 00:36:09 00:38:52 16° 63° (ENE) 00:41:46 437.325
AIST 2 03 Sep 00:37:52 00:42:02 67° 55° (NE) 00:46:08 435.215
TISAT 1 03 Sep 00:48:31 00:52:44 74° 259° (W) 00:56:59 437.305
AUBIESAT-1 03 Sep 00:50:22 00:53:35 24° 298° (WNW) 00:56:32 437.475
CUSAT 1 03 Sep 00:56:51 01:00:44 33° 292° (WNW) 01:05:45 437.405
M-CUBED/EXP-1 PRIME 03 Sep 00:58:25 01:01:10 18° 300° (WNW) 01:03:41 437.505
TIGRISAT 03 Sep 01:00:14 01:02:42 14° 297° (WNW) 01:04:57 435.000
BEESAT 03 Sep 01:06:14 01:10:21 30° 68° (ENE) 01:14:31 436.000
RS-15 03 Sep 01:10:24 01:22:19 89° 59° (ENE) 01:34:37 29.354- 29.394
BUGSAT 1 03 Sep 01:10:34 01:14:31 37° 289° (WNW) 01:18:26 437.445
Cosmos 2504 03 Sep 01:11:43 01:18:38 27° 295° (WNW) 01:25:33 435.465 / 435.565
DUCHIFAT 1 03 Sep 01:13:45 01:17:10 23° 292° (WNW) 01:20:29 145.980
POLYITAN 1 03 Sep 01:13:51 01:17:13 22° 293° (WNW) 01:20:28 437.675
POPSAT HIP 1 03 Sep 01:15:31 01:18:51 22° 293° (WNW) 01:22:04 437.405
PCSat 03 Sep 01:17:43 01:22:53 48° 114° (ESE) 01:28:07 145.827
GONETS M04 03 Sep 01:29:34 01:35:42 23° 81° (E) 01:42:14
SPROUT 03 Sep 01:31:36 01:34:18 16° 270° (W) 01:36:50 437.525
SWISSCUBE 03 Sep 01:31:54 01:36:34 59° 73° (ENE) 01:41:16 437.505
NANOSAT C BR1 03 Sep 01:32:55 01:35:26 15° 295° (WNW) 01:37:48 145.865
QB50P2 03 Sep 01:33:57 01:36:18 14° 296° (WNW) 01:38:29 145.880/145.840
KKS-1 03 Sep 01:42:14 01:43:38 12° 62° (ENE) 01:45:16 437.445
DANDE 03 Sep 01:43:34 01:46:24 18° 300° (WNW) 01:49:39 436.750
QB50P1 03 Sep 01:49:02 01:50:00 11° 298° (WNW) 01:50:44 145.935-145.965
SO-50 03 Sep 02:07:24 02:11:39 29° 316° (NW) 02:15:55 436.795
ITUPSAT 1 03 Sep 02:11:35 02:16:19 63° 259° (W) 02:21:04 437.325
Oscar 19 03 Sep 02:16:43 02:21:54 65° 101° (E) 02:27:03 437.125/150
AIST 2 03 Sep 02:18:29 02:20:05 12° 251° (WSW) 02:21:29 435.215
Cosmos 2499 03 Sep 02:39:26 02:44:05 17° 77° (ENE) 02:49:22 435.465 / 435.565
BEESAT 03 Sep 02:43:58 02:48:10 29° 265° (W) 02:52:18 436.000
JAS-2 03 Sep 02:48:58 02:54:10 24° 87° (E) 02:59:05 435.910
STARS 03 Sep 02:51:00 02:54:58 34° 70° (ENE) 02:59:00 437.465
PCSat 03 Sep 03:01:55 03:06:34 28° 313° (NW) 03:11:10 145.827
VERMONT LUNAR 03 Sep 03:11:20 03:14:02 31° 161° (SSE) 03:16:44 437.305
SWISSCUBE 03 Sep 03:12:02 03:14:52 15° 270° (W) 03:17:29 437.505
KKS-1 03 Sep 03:15:14 03:19:41 79° 258° (WSW) 03:24:11 437.445
Gurwin Techsat 1B 03 Sep 03:16:55 03:22:16 74° 102° (ESE) 03:27:34 435.225
ITAMSAT 1 03 Sep 03:20:51 03:26:01 65° 102° (ESE) 03:31:10 435.822/435.867
GONETS M04 03 Sep 03:23:03 03:31:44 75° 280° (W) 03:40:30
RS-15 03 Sep 03:24:23 03:33:38 26° 257° (WSW) 03:42:28 29.354- 29.394
O/OREOS (USA 219) 03 Sep 03:44:44 03:48:37 27° 57° (ENE) 03:52:32 437.305
MOZHAYETS 4 03 Sep 03:45:36 03:49:38 32° 70° (ENE) 03:53:45
Oscar 19 03 Sep 03:57:22 04:00:47 17° 298° (WNW) 04:04:00 437.125/150
AO-7 03 Sep 04:06:09 04:13:30 35° 96° (E) 04:20:57 29.400- 29.500
HORYU 2 03 Sep 04:18:08 04:22:02 29° 96° (E) 04:25:57 437.375
Cosmos 2499 03 Sep 04:27:28 04:35:59 82° 96° (E) 04:44:56 435.465 / 435.565
STARS 03 Sep 04:27:57 04:31:30 23° 267° (W) 04:34:58 437.465
JAS-2 03 Sep 04:33:03 04:39:54 59° 290° (WNW) 04:45:54 435.910
PHONESAT 2.4 03 Sep 04:41:13 04:43:47 20° 154° (SSE) 04:46:24 2401.200-2431.200
VERMONT LUNAR 03 Sep 04:47:16 04:50:13 62° 178° (S) 04:53:11 437.305
Gurwin Techsat 1B 03 Sep 04:58:28 05:01:41 16° 299° (WNW) 05:04:42 435.225
ITAMSAT 1 03 Sep 05:01:38 05:05:03 17° 298° (WNW) 05:08:17 435.822/435.867
MOZHAYETS 4 03 Sep 05:23:00 05:26:54 26° 266° (W) 05:30:43
O/OREOS (USA 219) 03 Sep 05:23:57 05:28:06 33° 255° (WSW) 05:32:10 437.305
GONETS M04 03 Sep 05:25:25 05:30:31 16° 304° (NW) 05:35:08
CUBESAT XI-V 03 Sep 05:45:54 05:50:19 50° 73° (ENE) 05:54:47 437.345
HORYU 2 03 Sep 05:54:49 05:58:36 27° 292° (WNW) 06:02:17 437.375
AO-7 03 Sep 05:58:37 06:06:38 54° 295° (WNW) 06:14:34 29.400- 29.500
CUTE-I 03 Sep 06:04:18 06:07:30 17° 89° (E) 06:10:57 437.470
PHONESAT 2.4 03 Sep 06:17:57 06:21:18 54° 170° (S) 06:24:39 2401.200-2431.200
JAS-2 03 Sep 06:21:19 06:23:28 11° 310° (NW) 06:25:11 435.910
VERMONT LUNAR 03 Sep 06:23:38 06:26:28 41° 194° (SSW) 06:29:18 437.305
Cosmos 2499 03 Sep 06:23:39 06:30:24 23° 299° (WNW) 06:37:00 435.465 / 435.565
STRAND 1 03 Sep 06:36:48 06:41:38 47° 71° (ENE) 06:46:33 437.568
PRISM 03 Sep 06:42:16 06:45:55 33° 70° (ENE) 06:49:37 437.425
YUBILEINY 03 Sep 06:49:19 06:56:09 25° 63° (ENE) 07:03:14 435.215
Cubesat XI-IV 03 Sep 06:58:41 07:03:53 53° 100° (E) 07:09:06 437.490
AIST 1 03 Sep 07:11:49 07:14:50 20° 88° (E) 07:17:58
SO-50 03 Sep 07:19:10 07:20:16 11° 28° (NNE) 07:21:31 436.795
CUBESAT XI-V 03 Sep 07:25:06 07:28:06 16° 270° (W) 07:30:56 437.345
BRITE-PL 03 Sep 07:30:35 07:35:01 24° 91° (E) 07:39:39 437.365/2234.400
Cosmos 2491 03 Sep 07:40:15 07:46:25 23° 81° (E) 07:52:56 435.465 / 435.565
CUTE-I 03 Sep 07:42:51 07:48:07 64° 287° (WNW) 07:53:23 437.470
GOMX 1 03 Sep 07:46:37 07:50:32 20° 89° (E) 07:54:37 467.674
DOVE 4 03 Sep 07:48:59 07:50:50 12° 85° (E) 07:53:01 437.250
ISS 03 Sep 07:53:54 07:56:55 37° 139° (SE) 07:59:59 145.825
AO-7 03 Sep 07:54:12 07:57:45 13° 316° (NW) 08:00:54 29.400- 29.500
PHONESAT 2.4 03 Sep 07:55:41 07:59:03 62° 187° (S) 08:02:25 2401.200-2431.200
VERMONT LUNAR 03 Sep 08:01:00 08:02:27 13° 209° (SSW) 08:03:50 437.305
STRAND 1 03 Sep 08:17:16 08:21:09 21° 268° (W) 08:24:53 437.568
PRISM 03 Sep 08:18:22 08:21:28 20° 267° (W) 08:24:27 437.425
HO-68 03 Sep 08:19:12 08:24:31 23° 90° (E) 08:30:03 435.675
Cubesat XI-IV 03 Sep 08:39:37 08:43:39 22° 296° (WNW) 08:47:33 437.490
YUBILEINY 03 Sep 08:45:11 08:54:01 74° 265° (W) 09:02:45 435.215
AIST 1 03 Sep 08:48:25 08:52:16 33° 285° (WNW) 08:56:08
DANDE 03 Sep 08:57:17 08:58:02 10° 54° (NE) 08:59:27 436.750
SO-50 03 Sep 08:57:21 09:02:08 46° 50° (NE) 09:06:48 436.795
Cosmos 2504 03 Sep 09:04:38 09:11:00 24° 63° (ENE) 09:17:23 435.465 / 435.565
ANTELSAT 03 Sep 09:05:50 09:07:18 12° 61° (ENE) 09:09:01 437.575/2403.000
CUTE 1.7 + AOD 2 03 Sep 09:06:00 09:10:00 41° 98° (E) 09:14:00 437.475
BRITE-PL 03 Sep 09:08:23 09:13:45 50° 288° (WNW) 09:19:13 437.365/2234.400
CANX-2 03 Sep 09:20:19 09:24:32 68° 101° (E) 09:28:43 2200.000
CUBEBUG 2 03 Sep 09:23:09 09:26:18 18° 90° (E) 09:29:32 437.445
GOMX 1 03 Sep 09:23:38 09:29:01 57° 287° (WNW) 09:34:22 467.674
DOVE 4 03 Sep 09:23:59 09:29:22 86° 285° (WNW) 09:34:37 437.250
UWE-3 03 Sep 09:24:56 09:27:20 14° 88° (E) 09:29:53 435.000/436.395/437.385
ISS 03 Sep 09:30:23 09:33:22 32° 336° (NNW) 09:36:21 145.825
PHONESAT 2.4 03 Sep 09:33:42 09:36:39 27° 202° (SSW) 09:39:35 2401.200-2431.200
Cosmos 2491 03 Sep 09:33:46 09:42:29 75° 280° (W) 09:51:13 435.465 / 435.565
SEEDS 03 Sep 09:36:52 09:41:04 75° 101° (E) 09:45:13 437.485
CUSAT 1 03 Sep 09:48:05 09:55:01 34° 68° (ENE) 10:02:22 437.405
CINEMA 3 03 Sep 09:49:49 09:54:51 78° 103° (ESE) 09:59:41 145.822/145.860
UNISAT 6 03 Sep 09:53:38 09:57:49 33° 70° (ENE) 10:02:04 437.425
COMPASS 1 03 Sep 09:54:12 09:58:22 89° 284° (WNW) 10:02:31 437.405
Oscar 11 03 Sep 09:57:33 10:01:32 35° 97° (E) 10:05:29 145.826/435.025
AAUSAT CUBESAT 2 03 Sep 10:01:57 10:06:06 87° 287° (WNW) 10:10:13 437.432
AUBIESAT-1 03 Sep 10:02:08 10:06:35 42° 66° (ENE) 10:10:55 437.475
PCSat 03 Sep 10:04:59 10:10:10 44° 53° (NE) 10:15:21 145.827
HO-68 03 Sep 10:05:45 10:12:56 70° 289° (WNW) 10:20:04 435.675
DELFI C3 03 Sep 10:06:51 10:10:17 27° 95° (E) 10:13:44 145.870
M-CUBED/EXP-1 PRIME 03 Sep 10:09:54 10:14:37 59° 68° (ENE) 10:19:13 437.505
TIGRISAT 03 Sep 10:20:32 10:25:09 60° 74° (ENE) 10:29:49 435.000
BUGSAT 1 03 Sep 10:27:13 10:29:30 15° 65° (ENE) 10:31:59 437.445
DUCHIFAT 1 03 Sep 10:30:34 10:34:05 26° 69° (ENE) 10:37:41 145.980
POLYITAN 1 03 Sep 10:31:03 10:34:43 28° 69° (ENE) 10:38:27 437.675
POPSAT HIP 1 03 Sep 10:32:31 10:36:10 29° 69° (ENE) 10:39:54 437.405
DANDE 03 Sep 10:35:35 10:43:02 50° 74° (ENE) 10:51:17 436.750
SO-50 03 Sep 10:38:27 10:42:26 24° 247° (WSW) 10:46:14 436.795
ANTELSAT 03 Sep 10:38:44 10:43:26 86° 258° (WSW) 10:48:11 437.575/2403.000
CUTE 1.7 + AOD 2 03 Sep 10:42:43 10:45:38 18° 294° (WNW) 10:48:25 437.475
YUBILEINY 03 Sep 10:45:10 10:49:27 14° 284° (WNW) 10:53:06 435.215
ZACube-1 03 Sep 10:46:31 10:51:03 81° 102° (ESE) 10:55:24 437.345
NANOSAT C BR1 03 Sep 10:48:35 10:52:34 42° 72° (ENE) 10:56:38 145.865
QB50P2 03 Sep 10:49:45 10:53:49 45° 72° (ENE) 10:57:57 145.880/145.840
FUNcube-1 03 Sep 10:50:37 10:55:08 87° 103° (ESE) 10:59:29 145.935
Cosmos 2504 03 Sep 10:55:49 11:04:18 76° 265° (W) 11:12:11 435.465 / 435.565
VELOX 1 03 Sep 10:56:16 10:58:29 14° 89° (E) 11:00:56 145.980
CANX-2 03 Sep 10:58:23 10:59:57 12° 297° (WNW) 11:01:19 2200.000
CUBEBUG 2 03 Sep 10:58:49 11:03:17 45° 288° (WNW) 11:07:35 437.445
UWE-3 03 Sep 10:59:48 11:04:19 55° 286° (WNW) 11:08:39 435.000/436.395/437.385
QB50P1 03 Sep 11:03:14 11:07:26 63° 75° (ENE) 11:11:41 145.935-145.965
DOVE 4 03 Sep 11:03:59 11:06:21 13° 300° (WNW) 11:08:28 437.250
ISS 03 Sep 11:08:24 11:10:30 16° 356° (N) 11:12:36 145.825
HUMSAT D 03 Sep 11:08:28 11:12:38 53° 100° (E) 11:16:41 437.325/437.525
SEEDS 03 Sep 11:15:20 11:16:18 11° 297° (WNW) 11:17:04 437.485
